Погода в Малахове

Россия / Тульская область     54°45′04″N   37°26′41″E
темп.,
°C
ветер,
м/с
пор.,
м/с
влажн.,
%
обл.,
%
осадки,
мм/ч
давл.,
гПа
погр.,
м
5 марта, пт
пт500:00−4зсз2397100 0.8 1002124
03:00−6сз3697100 0.9 1004128
06:00−9сз239783 0.1 100626
09:00−8зсз359550 0.1 1008185
12:00−3зсз478559 0.0 1009777
15:00−2зсз467876 0.1 10111109
18:00−6зсз348633 0.1 101235
21:00−9з238717 0.1 101521
6 марта, сб
сб600:00−10з22880 0.0 101621
03:00−11зюз12890 0.0 101721
06:00−11сз119194 0.0 101621
09:00−8ссз229397 0.1 1017114
12:00−5сз348392 0.0 1017595
15:00−4зсз457785 0.2 1016951
18:00−7з3487100 0.3 101690
21:00−11з348964 0.3 101646
7 марта, вс
вс700:00−11юз47910 0.0 1015112
03:00−10юз612890 0.0 1012262
06:00−8юз8178368 0.0 1008586
09:00−6юз10187984 0.0 1003796
12:00−4юз111892100 1.1 9971247
15:00−6зсз81776100 2.9 9971126
18:00−7з6157233 0.0 1000568
21:00−8зюз7167717 0.0 1001504
8 марта, пн
пн800:00−8зюз7168133 0.0 998560
03:00−8юз8168161 0.0 997646
06:00−6з91493100 0.4 996946
09:00−10зсз7128593 0.8 998817
12:00−8зсз81187100 0.2 10011146
15:00−7зсз81381100 0.3 10031369
18:00−8зсз6128599 0.1 1005663
21:00−10зсз4109394 0.1 1008314
9 марта, вт
вт900:00−13зсз369659 0.0 1010111
03:00−13зсз359773 0.1 1012119
06:00−13сз3796100 0.2 1014286
09:00−15ссз4693100 0.2 1015391
12:00−12сз4687100 0.0 1016621
15:00−10сз4684100 0.1 1017778
18:00−13зсз348789 0.0 101777
21:00−15зюз239161 0.0 101824